User: anonymous
Location: Hopkins Observatory
(42.6965°N, 73.1843°W)
Time: 07:28:36
(UTC-04:00)
Language:

RS-15 - Orbit

View from above orbital plane
View from above orbital plane
View from above satellite
View from above satellite

Ground track
Ground track

The orbit data is extracted from the following two-line orbital elements,

1 23439U 94085A   14211.85868079 -.00000039  00000-0  10000-3 0  6946
2 23439 064.8170 121.1098 0145584 074.0589 287.6321 11.27561526806921
Epoch (UTC): 30 July 2014 20:36:30
Eccentricity: 0.0145584
inclination: 64.8170°
perigee height: 1900 km
apogee height: 2145 km
right ascension of ascending node: 121.1098°
argument of perigee: 74.0589°
revolutions per day: 11.27561526
mean anomaly at epoch: 287.6321°
orbit number at epoch: 80692

The dashed part of the orbit path shows where the satellite is in the earth's shadow,  

DLR